Content
SEND FEEDBACK

Daily
Averages
Monthly
Summary
Canada

BRANTFORD, ONTARIO


Home > North America > Canada > Ontario
Elevation: 815 feet     Latitude: 43 08N     Longitude: 080 21W

WEATHER
 
SELECT A DAY
Number of Records: 129,001;   Date Range: 5/15/00 - 7/22/14
 
SHARE

PRINT THIS DATA

[ ← Previous Day ]
WEATHER ALMANAC - APRIL 26, 2013
[ Next Day → ]
[ °C ]   °F
Weather ElementAverageHighLow
Temperature41.5 °F52.3 °F (3:00 pm)26.8 °F (7:00 am)
Dewpoint29 °F36.3 °F (10:00 am)21.6 °F (4:00 pm)
Humidity65.4 %96 % (4:00 am)30 % (5:00 pm)
Barometer30.41 in30.47 in (11:00 am)30.32 in (1:00 am)
Wind Speed3.6 mph10.4 mph (2:00 pm)
Wind Gust18.4 mph (2:00 pm)
Weather ElementAverage
Wind DirectionSSE (153.2 °)

Weather ElementTotal
Precipitation---
Heating Degree Days25.5 (Base 65)
Averaged from 27 records on April 26, 2013
WEATHER CONDITIONS BREAKOUT
WIND DIRECTION BREAKOUT
WEATHER BY HOUR - APRIL 26, 2013
[ °C ]   °F
Local TimeTemperatureDewpointHumidityBarometerVisibilityWind DirectionWind SpeedGust SpeedPrecipitationEventsConditions
1:00 AM33.3 °F31.8 °F94 %30.32 inSSW (210°)2.3 mph
2:00 AM32.0 °F30.0 °F91 %30.33 inCalm
2:00 AM31.6 °F30.4 °F95 %30.33 inCalm
3:00 AM30.2 °F28.9 °F95 %30.35 inSSW (200°)2.3 mph
4:00 AM28.6 °F27.5 °F96 %30.37 inSW (220°)1.2 mph
5:00 AM27.5 °F26.4 °F96 %30.38 inCalm
6:00 AM27.3 °F26.2 °F96 %30.40 inCalm
7:00 AM26.8 °F25.5 °F95 %30.42 inCalm
8:00 AM34.0 °F33.0 °F95 %30.43 inCalm
8:00 AM34.3 °F33.1 °F95 %30.43 inCalm
9:00 AM41.0 °F36.0 °F82 %30.45 inSSW (200°)3.5 mph
10:00 AM45.9 °F36.3 °F69 %30.45 inSSW (210°)4.6 mph
11:00 AM47.8 °F33.1 °F57 %30.47 inSouth (170°)4.6 mph
12:00 PM49.6 °F34.9 °F57 %30.46 inSouth (180°)4.6 mph
1:00 PM50.0 °F27.9 °F42 %30.45 inSSE (160°)4.6 mph
2:00 PM52.0 °F31.0 °F33 %30.46 inSouth (190°)10.4 mph
2:00 PM52.2 °F31.5 °F45 %30.46 inSouth (190°)10.4 mph18.4 mph
3:00 PM52.3 °F27.1 °F38 %30.45 inSSW (200°)5.8 mph
4:00 PM50.4 °F21.6 °F32 %30.44 inSW (220°)6.9 mph
5:00 PM52.3 °F21.9 °F30 %30.42 inSW (220°)6.9 mph
6:00 PM51.6 °F21.9 °F31 %30.40 inSSW (200°)6.9 mph
7:00 PM50.7 °F26.1 °F38 %30.40 inSW (220°)6.9 mph
8:00 PM47.0 °F27.0 °F32 %30.40 inSSW (200°)3.5 mph
8:00 PM47.1 °F26.6 °F45 %30.40 inSSW (200°)3.5 mph
9:00 PM44.6 °F27.0 °F50 %30.38 inSSE (160°)3.5 mph
10:00 PM42.4 °F29.5 °F60 %30.40 inSSE (150°)2.3 mph
11:00 PM38.1 °F31.1 °F76 %30.41 inSE (130°)1.2 mph
Hourly data recorded from CXDI, located miles away from Brantford, Ontario







STORIES FROM OUR PARTNERS